Location: Grand Moustoir
(47.8355°N, 3.3120°W)
Time: 12:39:37
(UTC+00:00)

SL-16 R/B - Pass Details

Date: 20 January 2020
Orbit: 842 x 846 km, 71.0° (Epoch: 20 February)

Event Time Altitude Azimuth Distance (km) Brightness Sun altitude
Rises 06:11:56 0° 184° (S) 3,387 5.4 -16.8°
Reaches altitude 10° 06:14:28 10° 178° (S) 2,457 4.8 -16.4°
Maximum altitude 06:19:45 43° 108° (ESE) 1,176 3.5 -15.6°
Drops below altitude 10° 06:25:04 10° 39° (NE) 2,475 5.0 -14.7°
Sets 06:27:37 0° 33° (NNE) 3,415 5.6 -14.3°
